EZYCIRC EGHI-EGHI

Flight info

Callsign EZYCIRC
Flight time N/A
Altitude 9000
Route BAMTU DCT CF26 DCT EMVOW DCT CF20 DCT BAMTU DCT CF26 DCT EMVOW DCT CF20 DCT BAMTU DCT CF26 DCT EMVOW DCT CF20
Aircraft A20N/M-SDE2E3FGHIRWXY/LB1

Departure

Time 2026-05-09 18:12
Airport Southampton Airport (EGHI)

Arrival

Time N/A
Airport Southampton Airport (EGHI)
Time Latitude Longitude Altitude Speed Heading
2026-05-09 17:56 50.94962 -1.36111 47 ft 0 kts 19°
2026-05-09 18:06 50.94949 -1.36118 44 ft 2 kts 19°
2026-05-09 18:06 50.94935 -1.36126 42 ft 2 kts 34°
2026-05-09 18:06 50.94925 -1.36140 44 ft 2 kts 54°
2026-05-09 18:07 50.94918 -1.36158 43 ft 0 kts 107°
2026-05-09 18:08 50.94918 -1.36154 44 ft 0 kts 108°
2026-05-09 18:08 50.94914 -1.36137 44 ft 4 kts 109°
2026-05-09 18:08 50.94897 -1.36067 45 ft 9 kts 114°
2026-05-09 18:08 50.94873 -1.36031 47 ft 2 kts 166°
2026-05-09 18:09 50.94831 -1.36044 46 ft 10 kts 197°
2026-05-09 18:09 50.94731 -1.36100 42 ft 20 kts 200°
2026-05-09 18:09 50.94623 -1.36130 37 ft 15 kts 165°
2026-05-09 18:09 50.94567 -1.35990 37 ft 14 kts 114°
2026-05-09 18:10 50.94504 -1.35973 36 ft 12 kts 194°
2026-05-09 18:10 50.94441 -1.36005 37 ft 17 kts 200°
2026-05-09 18:10 50.94317 -1.36030 35 ft 6 kts 179°
2026-05-09 18:10 50.94308 -1.36055 37 ft 3 kts 266°
2026-05-09 18:11 50.94321 -1.36069 35 ft 3 kts
2026-05-09 18:11 50.94390 -1.36036 36 ft 31 kts 19°
2026-05-09 18:11 50.94898 -1.35755 46 ft 119 kts 17°
2026-05-09 18:11 50.95874 -1.35197 384 ft 175 kts 21°
2026-05-09 18:12 50.97169 -1.34495 994 ft 205 kts 20°
2026-05-09 18:12 50.98599 -1.33824 1584 ft 225 kts 18°
2026-05-09 18:12 51.00164 -1.33612 2552 ft 234 kts 351°
2026-05-09 18:12 51.01512 -1.35034 3773 ft 246 kts 308°
2026-05-09 18:13 51.02098 -1.37449 4011 ft 230 kts 282°
2026-05-09 18:13 51.01941 -1.39891 3999 ft 220 kts 247°
2026-05-09 18:13 51.01013 -1.41702 3993 ft 206 kts 210°
2026-05-09 18:13 50.99773 -1.42704 3997 ft 195 kts 202°
2026-05-09 18:14 50.98519 -1.43623 4045 ft 211 kts 202°
2026-05-09 18:14 50.97156 -1.44591 4122 ft 217 kts 202°
2026-05-09 18:14 50.95779 -1.45484 4171 ft 211 kts 198°
2026-05-09 18:14 50.94385 -1.46217 4192 ft 210 kts 193°
2026-05-09 18:15 50.92964 -1.46729 4194 ft 209 kts 186°
2026-05-09 18:15 50.91522 -1.46972 4202 ft 208 kts 180°
2026-05-09 18:15 50.90076 -1.47005 4192 ft 210 kts 176°
2026-05-09 18:15 50.88607 -1.46950 3905 ft 214 kts 174°
2026-05-09 18:16 50.87106 -1.46806 3467 ft 224 kts 172°
2026-05-09 18:16 50.85515 -1.46490 2962 ft 232 kts 163°
2026-05-09 18:16 50.84252 -1.45338 2876 ft 191 kts 116°
2026-05-09 18:16 50.84152 -1.43531 2630 ft 169 kts 69°
2026-05-09 18:17 50.84812 -1.41916 1998 ft 178 kts 37°
2026-05-09 18:17 50.85833 -1.40818 1524 ft 178 kts 27°
2026-05-09 18:17 50.86967 -1.40152 1239 ft 170 kts 20°
2026-05-09 18:17 50.88061 -1.39632 990 ft 162 kts 19°
2026-05-09 18:18 50.89346 -1.38909 994 ft 222 kts 22°
2026-05-09 18:18 50.90761 -1.38166 798 ft 204 kts 22°
2026-05-09 18:18 50.92024 -1.37347 481 ft 188 kts 21°
2026-05-09 18:18 50.93202 -1.36714 280 ft 170 kts 21°
2026-05-09 18:19 50.94268 -1.36112 69 ft 153 kts 22°
2026-05-09 18:19 50.96653 -1.34770 418 ft 238 kts 21°
2026-05-09 18:19 50.98348 -1.33713 1209 ft 278 kts 39°
2026-05-09 18:20 50.99342 -1.31165 2222 ft 288 kts 85°
2026-05-09 18:20 50.98913 -1.28252 2042 ft 274 kts 123°
2026-05-09 18:20 50.97337 -1.26221 1639 ft 330 kts 153°
2026-05-09 18:20 50.94971 -1.25535 1639 ft 352 kts 177°
2026-05-09 18:21 50.92607 -1.25709 1731 ft 320 kts 181°
2026-05-09 18:21 50.90511 -1.26084 1786 ft 294 kts 188°
2026-05-09 18:21 50.88640 -1.26999 1908 ft 271 kts 200°
2026-05-09 18:21 50.87019 -1.28297 1942 ft 253 kts 207°
2026-05-09 18:22 50.85555 -1.29681 1918 ft 237 kts 209°
2026-05-09 18:22 50.84157 -1.31109 1966 ft 233 kts 210°
2026-05-09 18:22 50.82888 -1.32497 2169 ft 213 kts 214°
2026-05-09 18:22 50.81765 -1.33936 2399 ft 200 kts 219°
2026-05-09 18:23 50.80847 -1.35384 2587 ft 184 kts 227°
2026-05-09 18:23 50.80121 -1.37102 2754 ft 194 kts 249°
2026-05-09 18:23 50.79972 -1.39155 2969 ft 182 kts 281°
2026-05-09 18:23 50.80428 -1.40863 3121 ft 156 kts 314°
2026-05-09 18:24 50.81302 -1.41729 3144 ft 145 kts 353°
2026-05-09 18:24 50.82283 -1.41814 3012 ft 140 kts
2026-05-09 18:24 50.83236 -1.41658 2731 ft 137 kts 14°
2026-05-09 18:25 50.85069 -1.41000 2152 ft 131 kts 21°
2026-05-09 18:25 50.85912 -1.40590 1874 ft 124 kts 24°
2026-05-09 18:25 50.86720 -1.40157 1625 ft 123 kts 25°
2026-05-09 18:25 50.87535 -1.39712 1416 ft 126 kts 23°
2026-05-09 18:26 50.88389 -1.39260 1190 ft 135 kts 22°
2026-05-09 18:26 50.89305 -1.38754 1054 ft 139 kts 22°
2026-05-09 18:26 50.90213 -1.38287 886 ft 135 kts 20°
2026-05-09 18:26 50.91109 -1.37827 728 ft 135 kts 22°
2026-05-09 18:27 50.91982 -1.37348 574 ft 134 kts 21°
2026-05-09 18:27 50.92568 -1.37030 453 ft 133 kts 21°
2026-05-09 18:27 50.93675 -1.36436 201 ft 122 kts 21°
2026-05-09 18:27 50.94509 -1.35974 56 ft 130 kts 23°
2026-05-09 18:28 50.95290 -1.35526 66 ft 119 kts 23°
2026-05-09 18:28 50.96247 -1.35004 451 ft 158 kts 22°
2026-05-09 18:28 50.97397 -1.34638 1285 ft 179 kts 334°
2026-05-09 18:28 50.98255 -1.35720 1694 ft 160 kts 304°
2026-05-09 18:29 50.98387 -1.37495 1985 ft 174 kts 244°
2026-05-09 18:29 50.97460 -1.38672 2154 ft 185 kts 194°
2026-05-09 18:29 50.96109 -1.39088 1947 ft 202 kts 182°
2026-05-09 18:29 50.94726 -1.39334 1878 ft 197 kts 180°
2026-05-09 18:30 50.93372 -1.39497 1803 ft 193 kts 179°
2026-05-09 18:30 50.92035 -1.39619 1736 ft 193 kts 181°
2026-05-09 18:30 50.90714 -1.39974 1678 ft 191 kts 188°
2026-05-09 18:30 50.89469 -1.40522 1723 ft 185 kts 206°
2026-05-09 18:31 50.88456 -1.41771 1681 ft 187 kts 231°
2026-05-09 18:31 50.87668 -1.43318 1673 ft 172 kts 202°
2026-05-09 18:31 50.86638 -1.44206 2024 ft 159 kts 161°
2026-05-09 18:31 50.85812 -1.43462 2264 ft 157 kts 96°
2026-05-09 18:32 50.86054 -1.41896 1856 ft 158 kts 46°
2026-05-09 18:32 50.87012 -1.40663 1301 ft 191 kts 36°
2026-05-09 18:32 50.88087 -1.39623 1345 ft 160 kts 27°
2026-05-09 18:32 50.89061 -1.38997 1086 ft 146 kts 22°
2026-05-09 18:33 50.89951 -1.38499 910 ft 124 kts 22°
2026-05-09 18:33 50.90767 -1.38043 727 ft 129 kts 22°
2026-05-09 18:33 50.91604 -1.37568 538 ft 127 kts 22°
2026-05-09 18:33 50.92512 -1.37078 379 ft 146 kts 21°
2026-05-09 18:34 50.93456 -1.36549 254 ft 146 kts 20°
2026-05-09 18:34 50.94371 -1.36046 56 ft 132 kts 23°
2026-05-09 18:34 50.95090 -1.35637 43 ft 75 kts 19°
2026-05-09 18:34 50.95859 -1.35217 131 ft 146 kts 22°
2026-05-09 18:35 50.96667 -1.34981 300 ft 102 kts 36°
2026-05-09 18:35 50.96728 -1.33921 738 ft 280 kts 133°
2026-05-09 18:35 50.95874 -1.33847 4262 ft 18 kts 221°
2026-05-09 18:35 50.95734 -1.34591 1368 ft 168 kts 324°
2026-05-09 18:36 50.95945 -1.34761 2669 ft 11 kts 356°